Find Starlink 2234

NORAD ID: 48580 Int'l Des: 2021-041 Owner: SPXS Country: US Constellation: starlink operational
LEOCIRCULAR

Live-Position

3D-Globus wird geladen...

Über Starlink 2234

Beschreibung wird geladen...

Nächste Überflüge

Passes for default location (London). Set your location on the main map for personalized predictions.

Höhenverlauf

Loading altitude history...

Zweizeiliger Elementsatz

1 48580U 21041AD 26106.78258028 .00001795 00000-0 69572-4 0 9993
2 48580 53.1616 284.0153 0001572 76.4041 283.7136 15.31712649271479
Epoch: 16. Apr. 2026 • Age: 13 hours

Aktueller Status

Höhe 472.2 km
Geschwindigkeit 7.63 km/s
Subsatellitenpunkt 34.15°N, 6.08°W
Startdatum 15. Mai 2021
Alter 4.9 years
Typ internet

Technische Details

Klassifizierung Payload
Masse 260.00 kg
Trockenmasse 248.00 kg
Gesamtmasse 260.00 kg
Länge 0.20 m
Durchmesser 2.80 m
Spannweite 9.00 m
Form Box + pan
Hersteller SPXS
Bus-Typ Starlink
Phasenstatus In Orbit
Besitzer/Staat SPXS/US

Most Searched